Euro Snow — VQGH9 — position and weather

sailwx.info

Track history (hours):
 
Tides and Currents Weather Stations Pressure Air Temp Water Temp Dewpoint Dewpoint Depression Visibility Wind Speed Wind Dir Waves Ship Positions

Euro Snow

Last reported at 2014-Oct-25 23:33 UTC. Time now 2014-Oct-25 23:38 UTC.
Position N 51°58' E 004°02'.

Length 133 m; draft 7.3 m.

Type: Cargo ship. MMSI: 235613000.

Date/timePositionNaut miles runAvg speedWind from/ knotsBaromVisibWave heightAir tempDewpointWater temp
2014-Oct-25 23:33N 51°58' E 004°02'0 0.0
2014-Oct-25 22:31N 51°58' E 004°02'0 0.0
2014-Oct-25 21:33N 51°58' E 004°02'0 0.0
2014-Oct-25 20:26N 51°58' E 004°02'0 0.0
2014-Oct-25 19:31N 51°58' E 004°02'0 0.0
2014-Oct-25 18:30N 51°58' E 004°02'0 0.0
2014-Oct-25 17:30N 51°58' E 004°02'0 0.0
2014-Oct-25 16:30N 51°58' E 004°02'0 0.0
2014-Oct-25 15:30N 51°58' E 004°02'0 0.0
2014-Oct-25 14:33N 51°58' E 004°02'0 0.1
2014-Oct-25 13:33N 51°58' E 004°02'7 6.9
2014-Oct-25 12:33N 52°01' E 003°52'1110.9
2014-Oct-25 11:33N 52°12' E 003°47'1212.2
2014-Oct-25 10:33N 52°24' E 003°49'1312.5
2014-Oct-25 09:31N 52°37' E 003°53'4013.4
2014-Oct-25 06:33N 53°11' E 004°26'1312.9
2014-Oct-25 05:33N 53°23' E 004°33'1312.4
2014-Oct-25 04:33N 53°35' E 004°39'1312.6
2014-Oct-25 03:33N 53°47' E 004°46'1312.7
2014-Oct-25 02:33N 53°59' E 004°51'1513.8
2014-Oct-25 01:30N 54°13' E 004°59'7214.0
2014-Oct-24 20:20N 55°14' E 006°08'1613.6
2014-Oct-24 19:09N 55°27' E 006°22'913.7
2014-Oct-24 18:30N 55°35' E 006°31'1413.5
2014-Oct-24 17:26N 55°47' E 006°46'1213.3
2014-Oct-24 16:33N 55°57' E 006°57'1313.2
2014-Oct-24 15:32N 56°08' E 007°09'13013.7
2014-Oct-24 06:04N 57°40' E 009°57'714.4
2014-Oct-24 05:33N 57°44' E 010°10'1414.2
2014-Oct-24 04:33N 57°49' E 010°34'1515.1
2014-Oct-24 03:33N 57°45' E 011°02'1616.1
2014-Oct-24 02:33N 57°38' E 011°29'1211.8
2014-Oct-24 01:33N 57°41' E 011°51'0 0.4
2014-Oct-24 00:32N 57°42' E 011°51'0 0.0
2014-Oct-23 23:32N 57°42' E 011°51'0 0.0
2014-Oct-23 22:33N 57°42' E 011°51'0 0.0
2014-Oct-23 21:32N 57°42' E 011°51'0 0.0
2014-Oct-23 20:32N 57°42' E 011°51'0 0.0
2014-Oct-23 19:32N 57°42' E 011°51'0 0.3
2014-Oct-23 18:33N 57°41' E 011°51'8 8.0
2014-Oct-23 17:33N 57°36' E 011°39'9 8.7
2014-Oct-23 16:33N 57°39' E 011°24'1414.3
2014-Oct-23 15:33N 57°44' E 010°58'1615.6
2014-Oct-23 14:33N 57°46' E 010°30'1716.7
2014-Oct-23 13:33N 57°40' E 010°01'1716.6
2014-Oct-23 12:33N 57°32' E 009°33'36213.9
2014-Oct-22 10:33N 54°55' W 000°14'1616.0
2014-Oct-22 09:33N 54°48' W 000°38'1615.9
2014-Oct-22 08:33N 54°41' W 001°03'6 5.5
2014-Oct-22 07:27N 54°36' W 001°09'4 0.5
2014-Oct-21 22:33N 54°40' W 001°06'2 2.3
2014-Oct-21 21:29N 54°42' W 001°03'3 3.3
2014-Oct-21 20:31N 54°44' W 000°59'2 1.6
2014-Oct-21 19:22N 54°45' W 001°02'1 1.6
2014-Oct-21 18:30N 54°45' W 001°05'8 8.5
2014-Oct-21 17:33N 54°41' W 000°53'9 8.7
2014-Oct-21 16:30N 54°41' W 000°37'3 3.0
2014-Oct-21 15:33N 54°42' W 000°41'3 3.4
2014-Oct-21 14:33N 54°43' W 000°47'3 3.3
2014-Oct-21 13:33N 54°45' W 000°52'3 2.9
2014-Oct-21 12:32N 54°46' W 000°57'3 2.8
2014-Oct-21 11:33N 54°46' W 001°02'2 2.4
2014-Oct-21 10:33N 54°46' W 001°06'7 7.2
2014-Oct-21 09:32N 54°39' W 001°01'10 9.9
2014-Oct-21 08:33N 54°35' W 000°46'1010.4
2014-Oct-21 07:34N 54°31' W 000°30'1110.9
2014-Oct-21 06:34N 54°24' W 000°16'1211.6
2014-Oct-21 05:34N 54°15' W 000°03'1211.5
2014-Oct-21 04:34N 54°07' E 000°10'1111.2
2014-Oct-21 03:34N 53°58' E 000°22'1110.8
2014-Oct-21 02:34N 53°50' E 000°34'4113.6
2014-Oct-20 23:34N 53°16' E 001°14'1515.5
2014-Oct-20 22:34N 53°03' E 001°27'1515.0
2014-Oct-20 21:34N 52°52' E 001°43'1313.3
2014-Oct-20 20:33N 52°40' E 001°55'1514.7
2014-Oct-20 19:34N 52°26' E 001°50'1514.6
2014-Oct-20 18:33N 52°12' E 001°43'1414.2
2014-Oct-20 17:34N 51°59' E 001°35'1110.5
2014-Oct-20 16:33N 51°57' E 001°18'0 0.2
2014-Oct-20 15:34N 51°57' E 001°18'0 0.0
2014-Oct-20 14:34N 51°57' E 001°18'0 0.0
2014-Oct-20 13:30N 51°57' E 001°18'0 0.0
2014-Oct-20 12:34N 51°57' E 001°18'0 0.0
2014-Oct-20 11:34N 51°57' E 001°18'0 0.0
2014-Oct-20 10:34N 51°57' E 001°18'0 0.0
2014-Oct-20 09:32N 51°57' E 001°18'0 0.0
2014-Oct-20 08:32N 51°57' E 001°18'0 0.0
2014-Oct-20 07:32N 51°57' E 001°18'0 0.0
2014-Oct-20 06:32N 51°57' E 001°18'0 0.0
2014-Oct-20 05:33N 51°57' E 001°18'0 0.0
2014-Oct-20 04:33N 51°57' E 001°18'0 0.0
2014-Oct-20 03:33N 51°57' E 001°18'0 0.0
2014-Oct-20 02:33N 51°57' E 001°18'9 9.4
2014-Oct-20 01:33N 51°55' E 001°33'1212.2
2014-Oct-20 00:33N 51°47' E 001°48'1515.0
2014-Oct-19 23:33N 51°32' E 001°47'1615.9
2014-Oct-19 22:34N 51°16' E 001°42'1615.6
2014-Oct-19 21:34N 51°02' E 001°34'1917.7
2014-Oct-19 20:31N 50°44' E 001°23'27915.5
2014-Oct-19 02:33N 48°54' W 005°14'1616.4
2014-Oct-19 01:33N 48°45' W 005°35'1716.6
2014-Oct-19 00:34N 48°30' W 005°47'  
2014-Oct-16 17:07N 38°37' W 009°26'813.4
2014-Oct-16 16:33N 38°41' W 009°18'9 9.4
2014-Oct-16 15:33N 38°44' W 009°06'0 0.0
2014-Oct-16 14:33N 38°44' W 009°06'0 0.0
2014-Oct-16 13:31N 38°44' W 009°06'0 0.0
2014-Oct-16 12:31N 38°44' W 009°06'0 0.0
2014-Oct-16 11:26N 38°44' W 009°06'0 0.0
2014-Oct-16 10:32N 38°44' W 009°06'0 0.0
2014-Oct-16 09:32N 38°44' W 009°06'0 0.0
2014-Oct-16 08:33N 38°44' W 009°06'0 0.0
2014-Oct-16 07:32N 38°44' W 009°06'0 0.0
2014-Oct-16 06:29N 38°44' W 009°06'0 0.0
2014-Oct-16 05:28N 38°43' W 009°06'8 8.3
2014-Oct-16 04:32N 38°41' W 009°16'  
Track history (hours):
 
Tides and Currents Weather Stations Pressure Air Temp Water Temp Dewpoint Dewpoint Depression Visibility Wind Speed Wind Dir Waves Ship Positions

Euro Snow

Last reported at 2014-Oct-25 23:33 UTC. Time now 2014-Oct-25 23:38 UTC.
Position N 51°58' E 004°02'.

Length 133 m; draft 7.3 m.

Type: Cargo ship. MMSI: 235613000.

Date/timePositionNaut miles runAvg speedWind from/ knotsBaromVisibWave heightAir tempDewpointWater temp
2014-Oct-25 23:33N 51°58' E 004°02'0 0.0
2014-Oct-25 22:31N 51°58' E 004°02'0 0.0
2014-Oct-25 21:33N 51°58' E 004°02'0 0.0
2014-Oct-25 20:26N 51°58' E 004°02'0 0.0
2014-Oct-25 19:31N 51°58' E 004°02'0 0.0
2014-Oct-25 18:30N 51°58' E 004°02'0 0.0
2014-Oct-25 17:30N 51°58' E 004°02'0 0.0
2014-Oct-25 16:30N 51°58' E 004°02'0 0.0
2014-Oct-25 15:30N 51°58' E 004°02'0 0.0
2014-Oct-25 14:33N 51°58' E 004°02'0 0.1
2014-Oct-25 13:33N 51°58' E 004°02'7 6.9
2014-Oct-25 12:33N 52°01' E 003°52'1110.9
2014-Oct-25 11:33N 52°12' E 003°47'1212.2
2014-Oct-25 10:33N 52°24' E 003°49'1312.5
2014-Oct-25 09:31N 52°37' E 003°53'4013.4
2014-Oct-25 06:33N 53°11' E 004°26'1312.9
2014-Oct-25 05:33N 53°23' E 004°33'1312.4
2014-Oct-25 04:33N 53°35' E 004°39'1312.6
2014-Oct-25 03:33N 53°47' E 004°46'1312.7
2014-Oct-25 02:33N 53°59' E 004°51'1513.8
2014-Oct-25 01:30N 54°13' E 004°59'7214.0
2014-Oct-24 20:20N 55°14' E 006°08'1613.6
2014-Oct-24 19:09N 55°27' E 006°22'913.7
2014-Oct-24 18:30N 55°35' E 006°31'1413.5
2014-Oct-24 17:26N 55°47' E 006°46'1213.3
2014-Oct-24 16:33N 55°57' E 006°57'1313.2
2014-Oct-24 15:32N 56°08' E 007°09'13013.7
2014-Oct-24 06:04N 57°40' E 009°57'714.4
2014-Oct-24 05:33N 57°44' E 010°10'1414.2
2014-Oct-24 04:33N 57°49' E 010°34'1515.1
2014-Oct-24 03:33N 57°45' E 011°02'1616.1
2014-Oct-24 02:33N 57°38' E 011°29'1211.8
2014-Oct-24 01:33N 57°41' E 011°51'0 0.4
2014-Oct-24 00:32N 57°42' E 011°51'0 0.0
2014-Oct-23 23:32N 57°42' E 011°51'0 0.0
2014-Oct-23 22:33N 57°42' E 011°51'0 0.0
2014-Oct-23 21:32N 57°42' E 011°51'0 0.0
2014-Oct-23 20:32N 57°42' E 011°51'0 0.0
2014-Oct-23 19:32N 57°42' E 011°51'0 0.3
2014-Oct-23 18:33N 57°41' E 011°51'8 8.0
2014-Oct-23 17:33N 57°36' E 011°39'9 8.7
2014-Oct-23 16:33N 57°39' E 011°24'1414.3
2014-Oct-23 15:33N 57°44' E 010°58'1615.6
2014-Oct-23 14:33N 57°46' E 010°30'1716.7
2014-Oct-23 13:33N 57°40' E 010°01'1716.6
2014-Oct-23 12:33N 57°32' E 009°33'36213.9
2014-Oct-22 10:33N 54°55' W 000°14'1616.0
2014-Oct-22 09:33N 54°48' W 000°38'1615.9
2014-Oct-22 08:33N 54°41' W 001°03'6 5.5
2014-Oct-22 07:27N 54°36' W 001°09'4 0.5
2014-Oct-21 22:33N 54°40' W 001°06'2 2.3
2014-Oct-21 21:29N 54°42' W 001°03'3 3.3
2014-Oct-21 20:31N 54°44' W 000°59'2 1.6
2014-Oct-21 19:22N 54°45' W 001°02'1 1.6
2014-Oct-21 18:30N 54°45' W 001°05'8 8.5
2014-Oct-21 17:33N 54°41' W 000°53'9 8.7
2014-Oct-21 16:30N 54°41' W 000°37'3 3.0
2014-Oct-21 15:33N 54°42' W 000°41'3 3.4
2014-Oct-21 14:33N 54°43' W 000°47'3 3.3
2014-Oct-21 13:33N 54°45' W 000°52'3 2.9
2014-Oct-21 12:32N 54°46' W 000°57'3 2.8
2014-Oct-21 11:33N 54°46' W 001°02'2 2.4
2014-Oct-21 10:33N 54°46' W 001°06'7 7.2
2014-Oct-21 09:32N 54°39' W 001°01'10 9.9
2014-Oct-21 08:33N 54°35' W 000°46'1010.4
2014-Oct-21 07:34N 54°31' W 000°30'1110.9
2014-Oct-21 06:34N 54°24' W 000°16'1211.6
2014-Oct-21 05:34N 54°15' W 000°03'1211.5
2014-Oct-21 04:34N 54°07' E 000°10'1111.2
2014-Oct-21 03:34N 53°58' E 000°22'1110.8
2014-Oct-21 02:34N 53°50' E 000°34'4113.6
2014-Oct-20 23:34N 53°16' E 001°14'1515.5
2014-Oct-20 22:34N 53°03' E 001°27'1515.0
2014-Oct-20 21:34N 52°52' E 001°43'1313.3
2014-Oct-20 20:33N 52°40' E 001°55'1514.7
2014-Oct-20 19:34N 52°26' E 001°50'1514.6
2014-Oct-20 18:33N 52°12' E 001°43'1414.2
2014-Oct-20 17:34N 51°59' E 001°35'1110.5
2014-Oct-20 16:33N 51°57' E 001°18'0 0.2
2014-Oct-20 15:34N 51°57' E 001°18'0 0.0
2014-Oct-20 14:34N 51°57' E 001°18'0 0.0
2014-Oct-20 13:30N 51°57' E 001°18'0 0.0
2014-Oct-20 12:34N 51°57' E 001°18'0 0.0
2014-Oct-20 11:34N 51°57' E 001°18'0 0.0
2014-Oct-20 10:34N 51°57' E 001°18'0 0.0
2014-Oct-20 09:32N 51°57' E 001°18'0 0.0
2014-Oct-20 08:32N 51°57' E 001°18'0 0.0
2014-Oct-20 07:32N 51°57' E 001°18'0 0.0
2014-Oct-20 06:32N 51°57' E 001°18'0 0.0
2014-Oct-20 05:33N 51°57' E 001°18'0 0.0
2014-Oct-20 04:33N 51°57' E 001°18'0 0.0
2014-Oct-20 03:33N 51°57' E 001°18'0 0.0
2014-Oct-20 02:33N 51°57' E 001°18'9 9.4
2014-Oct-20 01:33N 51°55' E 001°33'1212.2
2014-Oct-20 00:33N 51°47' E 001°48'1515.0
2014-Oct-19 23:33N 51°32' E 001°47'1615.9
2014-Oct-19 22:34N 51°16' E 001°42'1615.6
2014-Oct-19 21:34N 51°02' E 001°34'1917.7
2014-Oct-19 20:31N 50°44' E 001°23'27915.5
2014-Oct-19 02:33N 48°54' W 005°14'1616.4
2014-Oct-19 01:33N 48°45' W 005°35'1716.6
2014-Oct-19 00:34N 48°30' W 005°47'  
2014-Oct-16 17:07N 38°37' W 009°26'813.4
2014-Oct-16 16:33N 38°41' W 009°18'9 9.4
2014-Oct-16 15:33N 38°44' W 009°06'0 0.0
2014-Oct-16 14:33N 38°44' W 009°06'0 0.0
2014-Oct-16 13:31N 38°44' W 009°06'0 0.0
2014-Oct-16 12:31N 38°44' W 009°06'0 0.0
2014-Oct-16 11:26N 38°44' W 009°06'0 0.0
2014-Oct-16 10:32N 38°44' W 009°06'0 0.0
2014-Oct-16 09:32N 38°44' W 009°06'0 0.0
2014-Oct-16 08:33N 38°44' W 009°06'0 0.0
2014-Oct-16 07:32N 38°44' W 009°06'0 0.0
2014-Oct-16 06:29N 38°44' W 009°06'0 0.0
2014-Oct-16 05:28N 38°43' W 009°06'8 8.3
2014-Oct-16 04:32N 38°41' W 009°16'  

Dump ship's entire track history